User: anonymous
Location: Unspecified
(0.0000°N, 0.0000°E)
Time: 08:16:17
(UTC+00:00)
Language:

GEOEYE 1 - Orbit

View from above orbital plane
View from above orbital plane
View from above satellite
View from above satellite

Ground track
Ground track

The orbit data is extracted from the following two-line orbital elements,

1 33331U 08042A   14208.83901159  .00000055  00000-0  19602-4 0  5211
2 33331 098.1319 283.2362 0008829 349.2024 010.8963 14.64189730314663
Epoch (UTC): 27 July 2014 20:08:10
Eccentricity: 0.0008829
inclination: 98.1319°
perigee height: 673 km
apogee height: 686 km
right ascension of ascending node: 283.2362°
argument of perigee: 349.2024°
revolutions per day: 14.64189730
mean anomaly at epoch: 10.8963°
orbit number at epoch: 31466

The dashed part of the orbit path shows where the satellite is in the earth's shadow,  

DLR